Weather History for Cook, MN

Change the Weather History Date:

Saturday, December 8, 2012

  Actual Average Record
Temperature  
Mean Temperature 12 °F -  
Max Temperature 24 °F 26 °F 39 °F (1999)
Min Temperature 0 °F 11 °F -32 °F (2013)
Degree Days  
Heating Degree Days 53    
Moisture  
Dew Point 10 °F    
Average Humidity 85    
Maximum Humidity 93    
Minimum Humidity 68    
Precipitation  
Precipitation 0.00 in - - ()
Sea Level Pressure  
Sea Level Pressure 30.03 in    
Wind  
Wind Speed 0 mph (SE)    
Max Wind Speed 6 mph    
Max Gust Speed -    
Visibility 10 miles    
Events Snow    
Averages and records for this station are not official NWS values.
T = Trace of Precipitation, MM = Missing Value Source: NWS Daily Summary

Daily Weather History Graph

Daily Weather History Graph

Search for Another Location

Airport:

Trip Planner

Search our weather history database for the weather conditions in past years. The results will help you decide how hot, cold, wet, or windy it might be!

Date:

Astronomy

Dec. 08, 2012 Rise Set
Actual Time 7:47 AM CST 4:18 PM CST
Civil Twilight 7:11 AM CST 4:54 PM CST
Nautical Twilight 6:32 AM CST 5:33 PM CST
Astronomical Twilight 5:54 AM CST 6:11 PM CST
Moon 1:53 AM CST (12/8) 1:05 PM CST (12/8)
Length of Visible Light 9h 42m
Length of Day
8h 31m
Waning Crescent, 28% of the Moon is Illuminated
Dec 8
Waning Crescent
Dec 13
New
Dec 19
First Quarter
Dec 28
Full
Jan 4
Last Quarter

Hourly Weather History & Observations

Time (CST) Temp. Windchill Dew Point Humidity Pressure Visibility Wind Dir Wind Speed Gust Speed Precip Events Conditions
12:17 AM 1.4 °F - -2.2 °F 85% 30.05 in 10.0 mi Calm Calm - N/A   Clear
12:36 AM 1.4 °F - -2.2 °F 85% 30.05 in 10.0 mi Calm Calm - N/A   Clear
12:56 AM -0.4 °F - -2.2 °F 92% 30.04 in 10.0 mi Calm Calm - N/A   Clear
1:17 AM -0.4 °F - -2.2 °F 92% 30.05 in 10.0 mi Calm Calm - N/A   Clear
1:36 AM -0.4 °F - -4.0 °F 85% 30.04 in 10.0 mi Calm Calm - N/A   Clear
2:17 AM -0.4 °F - -4.0 °F 85% 30.04 in 10.0 mi Calm Calm - N/A   Clear
2:37 AM -0.4 °F - -4.0 °F 85% 30.05 in 10.0 mi Calm Calm - N/A   Scattered Clouds
2:56 AM 1.4 °F - -2.2 °F 85% 30.05 in 10.0 mi Calm Calm - N/A   Mostly Cloudy
3:17 AM 1.4 °F - -0.4 °F 92% 30.04 in 10.0 mi Calm Calm - N/A   Overcast
3:37 AM 3.2 °F - 1.4 °F 92% 30.04 in 10.0 mi Calm Calm - N/A   Overcast
3:56 AM 3.2 °F - 1.4 °F 92% 30.04 in 10.0 mi Calm Calm - N/A   Overcast
4:17 AM 5.0 °F - 1.4 °F 85% 30.03 in 10.0 mi Calm Calm - N/A   Overcast
4:37 AM 5.0 °F - 1.4 °F 85% 30.03 in 10.0 mi Calm Calm - N/A   Overcast
4:56 AM 5.0 °F - 3.2 °F 92% 30.03 in 10.0 mi Calm Calm - N/A   Overcast
5:17 AM 6.8 °F - 3.2 °F 85% 30.03 in 10.0 mi Calm Calm - N/A   Overcast
5:36 AM 6.8 °F - 3.2 °F 85% 30.02 in 10.0 mi Calm Calm - N/A   Overcast
5:57 AM 6.8 °F - 3.2 °F 85% 30.03 in 10.0 mi Calm Calm - N/A   Overcast
6:17 AM 6.8 °F - 5.0 °F 92% 30.03 in 10.0 mi Calm Calm - N/A   Overcast
6:36 AM 8.6 °F - 5.0 °F 85% 30.03 in 10.0 mi Calm Calm - N/A   Overcast
6:57 AM 8.6 °F - 6.8 °F 92% 30.04 in 10.0 mi Calm Calm - N/A   Overcast
7:16 AM 8.6 °F - 6.8 °F 92% 30.03 in 10.0 mi Calm Calm - N/A   Overcast
7:36 AM 8.6 °F - 6.8 °F 92% 30.03 in 10.0 mi Calm Calm - N/A   Overcast
7:57 AM 8.6 °F - 6.8 °F 92% 30.03 in 10.0 mi Calm Calm - N/A   Overcast
8:16 AM 8.6 °F - 6.8 °F 92% 30.03 in 10.0 mi Calm Calm - N/A   Overcast
8:36 AM 10.4 °F - 6.8 °F 85% 30.03 in 10.0 mi Calm Calm - N/A   Overcast
8:57 AM 10.4 °F - 8.6 °F 92% 30.03 in 10.0 mi Calm Calm - N/A   Overcast
9:16 AM 12.2 °F - 8.6 °F 85% 30.03 in 10.0 mi Calm Calm - N/A   Overcast
9:36 AM 12.2 °F - 8.6 °F 85% 30.03 in 10.0 mi Calm Calm - N/A   Overcast
9:57 AM 12.2 °F 6.1 °F 10.4 °F 92% 30.04 in 10.0 mi East 3.5 mph - N/A Snow Light Snow
10:16 AM 14.0 °F - 10.4 °F 86% 30.04 in 10.0 mi Calm Calm - N/A Snow Light Snow
10:36 AM 14.0 °F - 10.4 °F 86% 30.04 in 10.0 mi Calm Calm - N/A Snow Light Snow
10:57 AM 15.8 °F 10.2 °F 10.4 °F 79% 30.04 in 10.0 mi ESE 3.5 mph - N/A   Overcast
11:16 AM 15.8 °F 7.2 °F 8.6 °F 73% 30.03 in 10.0 mi SE 5.8 mph - N/A   Overcast
11:36 AM 15.8 °F 8.6 °F 10.4 °F 79% 30.03 in 10.0 mi SE 4.6 mph - N/A Snow Light Snow
11:57 AM 17.6 °F - 10.4 °F 73% 30.02 in 10.0 mi Calm Calm - N/A Snow Light Snow
12:16 PM 17.6 °F 10.7 °F 10.4 °F 73% 30.02 in 10.0 mi ESE 4.6 mph - N/A   Overcast
12:36 PM 17.6 °F - 10.4 °F 73% 30.01 in 10.0 mi Calm Calm - N/A   Mostly Cloudy
12:56 PM 19.4 °F - 10.4 °F 68% 30.00 in 10.0 mi Calm Calm - N/A   Scattered Clouds
1:17 PM 19.4 °F - 12.2 °F 74% 30.00 in 10.0 mi Calm Calm - N/A   Mostly Cloudy
1:37 PM 21.2 °F - 12.2 °F 68% 30.00 in 10.0 mi Calm Calm - N/A   Overcast
1:56 PM 21.2 °F - 12.2 °F 68% 30.00 in 10.0 mi Calm Calm - N/A   Overcast
2:17 PM 21.2 °F - 12.2 °F 68% 29.99 in 10.0 mi Calm Calm - N/A   Overcast
2:36 PM 21.2 °F - 14.0 °F 74% 30.00 in 10.0 mi Calm Calm - N/A   Overcast
2:56 PM 23.0 °F - 15.8 °F 74% 29.99 in 7.0 mi Calm Calm - N/A Snow Light Snow
3:17 PM 23.0 °F 18.4 °F 15.8 °F 74% 30.00 in 5.0 mi SE 3.5 mph - N/A Snow Light Snow
3:37 PM 23.0 °F 18.4 °F 17.6 °F 80% 30.01 in 4.0 mi SSE 3.5 mph - N/A Snow Light Snow
3:56 PM 21.2 °F - 17.6 °F 86% 30.01 in 5.0 mi Calm Calm - N/A Snow Light Snow
4:17 PM 21.2 °F - 17.6 °F 86% 30.02 in 10.0 mi Calm Calm - N/A Snow Light Snow
4:36 PM 21.2 °F - 17.6 °F 86% 30.02 in 7.0 mi Calm Calm - N/A Snow Light Snow
4:57 PM 21.2 °F - 17.6 °F 86% 30.02 in 10.0 mi Calm Calm - N/A Snow Light Snow
5:16 PM 21.2 °F - 17.6 °F 86% 30.02 in 10.0 mi Calm Calm - N/A Snow Light Snow
5:36 PM 19.4 °F - 15.8 °F 86% 30.02 in 10.0 mi Calm Calm - N/A   Overcast
5:56 PM 19.4 °F - 15.8 °F 86% 30.03 in 10.0 mi Calm Calm - N/A   Overcast
6:16 PM 19.4 °F - 15.8 °F 86% 30.03 in 10.0 mi Calm Calm - N/A   Overcast
6:37 PM 19.4 °F - 15.8 °F 86% 30.03 in 10.0 mi Calm Calm - N/A   Overcast
6:56 PM 19.4 °F - 15.8 °F 86% 30.03 in 10.0 mi Calm Calm - N/A   Overcast
7:16 PM 19.4 °F - 17.6 °F 93% 30.03 in 10.0 mi Calm Calm - N/A   Overcast
7:56 PM 19.4 °F - 17.6 °F 93% 30.04 in 10.0 mi Calm Calm - N/A   Overcast
8:17 PM 19.4 °F - 17.6 °F 93% 30.04 in 10.0 mi Calm Calm - N/A   Overcast
8:36 PM 19.4 °F - 17.6 °F 93% 30.04 in 10.0 mi Calm Calm - N/A   Overcast
8:57 PM 21.2 °F - 17.6 °F 86% 30.05 in 10.0 mi Calm Calm - N/A   Overcast
9:16 PM 21.2 °F - 19.4 °F 93% 30.05 in 10.0 mi Calm Calm - N/A   Overcast
9:37 PM 21.2 °F - 19.4 °F 93% 30.06 in 10.0 mi Calm Calm - N/A   Overcast
9:57 PM 23.0 °F - 19.4 °F 86% 30.07 in 10.0 mi Calm Calm - N/A   Overcast
10:16 PM 23.0 °F - 19.4 °F 86% 30.07 in 10.0 mi Calm Calm - N/A   Overcast
10:37 PM 23.0 °F - 19.4 °F 86% 30.06 in 10.0 mi Calm Calm - N/A Snow Light Snow
10:56 PM 23.0 °F - 19.4 °F 86% 30.06 in 10.0 mi Calm Calm - N/A   Overcast
11:16 PM 24.8 °F - 19.4 °F 80% 30.07 in 10.0 mi Calm Calm - N/A   Overcast
11:37 PM 24.8 °F 20.5 °F 21.2 °F 86% 30.07 in 10.0 mi SE 3.5 mph - N/A   Overcast
11:57 PM 24.8 °F 20.5 °F 21.2 °F 86% 30.07 in 10.0 mi SE 3.5 mph - N/A   Overcast